[[{"header":{"parameterUnit":"m.s-1","parameterCategory":1,"la1":30.2991,"la2":30.254,"lo1":-89.0895,"lo2":-89.0444,"dy":0.0017,"dx":0.0017,"nx":28,"ny":28,"refTime":"2024-03-23T09:00:00:Z","depth":0,"parameterNumber":2,"parameterNumberName":"U-component_of_WINDS"},"data":[0,0,0,0,0,0,0,0,0,0,0,0,0,0,0,0,0,0,0,0,0,0,0,0,0,0,0,0,0,0,0,0,0,0,0,0,0,0,0,0,0,0,0,0,0,0,0,0,0,0,0,0,0,0,0,0,0,0,0.8226,0.8227,0,0.8301,0.8302,0.8303,0.833,0.833,0.833,0.833,0.8407,0.8409,0.8412,0,0,0,0,0,0,0,0,0,0,0,0,0,0.8109,0.8111,0.8226,0.8227,0.8228,0.8301,0.8302,0.8303,0.833,0.833,0.833,0.833,0.8406,0.8409,0.8412,0,0,0,0,0,0,0,0,0,0,0,0,0,0.817,0.8112,0.8226,0.825,0.8253,0.8301,0.8302,0.8303,0.833,0.833,0.833,0.8329,0.8405,0.8409,0.8412,0.8441,0,0,0.8423,0.8424,0,0,0,0,0,0,0,0,0.8166,0.8174,0.8246,0.8249,0.8252,0.8306,0.8289,0.835,0.8331,0.8301,0.833,0.8329,0.8374,0.838,0.8395,0.8445,0.8448,0.8423,0.8425,0.8427,0.8427,0,0,0,0,0,0,0,0.8162,0.8171,0.8256,0.8247,0.8251,0.8259,0.8267,0.8301,0.8339,0.8304,0.8306,0.8314,0.8375,0.8391,0.8397,0.8449,0.8423,0.8426,0.8428,0.8429,0.853,0.8531,0,0,0,0,0,0,0.8153,0.8167,0.8254,0.8258,0.8207,0.8261,0.827,0.8289,0.8338,0.8346,0.8315,0.8315,0.8386,0.8393,0.84,0.8439,0.8426,0.843,0.8432,0.853,0.853,0.8531,0,0,0,0,0,0,0.8151,0.8161,0.825,0.8213,0.8225,0.8263,0.8285,0.8291,0.8307,0.8347,0.8354,0.8324,0.8386,0.8395,0.8431,0.8442,0.8431,0.8434,0.8529,0.853,0.8531,0.8516,0,0,0,0,0,0,0.8147,0.816,0.817,0.8213,0.8227,0.828,0.8285,0.8293,0.8313,0.8314,0.8357,0.8364,0.8386,0.8426,0.8435,0.8446,0.8437,0.8528,0.8529,0.853,0.8515,0.8516,0.8517,0,0,0,0,0,0.8143,0.8162,0.8171,0.8181,0.8241,0.828,0.8288,0.8313,0.8313,0.8325,0.8351,0.8362,0.8439,0.8429,0.8439,0.8452,0.8527,0.8529,0.853,0.8515,0.8516,0.8516,0,0,0,0,0,0,0.8119,0.8168,0.8178,0.8212,0.8242,0.8285,0.83,0.8313,0.8343,0.8344,0.8374,0.8383,0.8418,0.8439,0.8427,0.8485,0.8484,0.8488,0.8469,0.847,0.8471,0.8465,0.844,0,0,0,0,0,0.8118,0.8145,0.8187,0.8213,0.8227,0.8261,0.8279,0.8296,0.8328,0.8341,0.837,0.8401,0.8433,0.8453,0.8484,0.8519,0.853,0.8533,0.8533,0.8534,0.8536,0.8559,0.8562,0.8535,0.8535,0.8535,0,0,0.8115,0.8145,0.8161,0.8209,0.8234,0.8263,0.8272,0.8301,0.8323,0.8346,0.8382,0.8405,0.8442,0.8479,0.8496,0.8497,0.8546,0.8535,0.8535,0.8538,0.8561,0.8563,0.8566,0.8536,0.8536,0.8536,0,0,0.8125,0.815,0.8175,0.8201,0.824,0.8263,0.8269,0.8311,0.8327,0.8364,0.8383,0.841,0.8463,0.849,0.851,0.8534,0.8546,0.8543,0.8546,0.8568,0.857,0.8572,0.8582,0.8585,0.8546,0.8546,0.8546,0,0.8117,0.816,0.8187,0.8216,0.8238,0.8261,0.8288,0.8312,0.8358,0.8373,0.8374,0.8443,0.8469,0.8514,0.852,0.8535,0.8544,0.8538,0.8567,0.8569,0.8572,0.8582,0.8585,0.8545,0.8545,0.8545,0.8545,0,0.8149,0.8179,0.8195,0.824,0.8264,0.8292,0.8324,0.8345,0.8361,0.8384,0.8424,0.8457,0.8496,0.8508,0.8523,0.8556,0.8555,0.8561,0.8561,0.8573,0.8583,0.8587,0.8544,0.8544,0.8545,0.8545,0,0,0.8144,0.8206,0.8211,0.8233,0.8279,0.8303,0.8333,0.8372,0.8391,0.8423,0.845,0.8496,0.8503,0.8526,0.8545,0.8564,0.8583,0.8568,0.8569,0.8571,0.8624,0.8619,0.8623,0.8592,0.8593,0.8594,0.8621,0,0.816,0.8214,0.8241,0.8284,0.8314,0.8338,0.8365,0.8396,0.842,0.8449,0.8475,0.8508,0.8513,0.8528,0.8548,0.8576,0.8594,0.8575,0.8619,0.862,0.8609,0.8628,0.8623,0.8647,0.8625,0.8626,0.8626,0,0.8186,0.8219,0.8266,0.8311,0.8324,0.8347,0.8387,0.8414,0.8452,0.8468,0.8495,0.8514,0.8549,0.8547,0.8596,0.8583,0.8603,0.862,0.8621,0.8627,0.8624,0.8635,0.8655,0.8659,0.8632,0.8632,0.8631,0,0.8179,0.8236,0.8271,0.8289,0.8342,0.8358,0.8381,0.8419,0.8441,0.8476,0.8492,0.853,0.8551,0.8581,0.8611,0.8607,0.8658,0.8658,0.8674,0.8673,0.8683,0.8682,0.8708,0.8695,0.8695,0.8695,0.8695,0,0.8195,0.8223,0.8269,0.8291,0.8324,0.8355,0.8387,0.8412,0.8446,0.8474,0.8497,0.8524,0.8561,0.8593,0.8616,0.8655,0.8664,0.8679,0.8685,0.8677,0.8675,0.869,0.869,0.8696,0.8695,0.8695,0.8695,0,0.8192,0.8224,0.8265,0.8313,0.8326,0.8348,0.8389,0.8412,0.8438,0.8474,0.8484,0.8525,0.8564,0.8597,0.8647,0.8663,0.8704,0.871,0.8691,0.8694,0.8708,0.8707,0.8745,0.8752,0.8734,0.8734,0.8734,0,0.82,0.8222,0.8273,0.8294,0.8317,0.835,0.8374,0.8407,0.8431,0.8477,0.8496,0.8536,0.857,0.8632,0.8666,0.8706,0.8715,0.8726,0.8721,0.8713,0.8716,0.8715,0.8718,0.8726,0.8726,0.8726,0.8726,0,0.8212,0.8227,0.826,0.83,0.8328,0.8361,0.8395,0.8411,0.845,0.8477,0.8517,0.8544,0.8597,0.8638,0.8682,0.8707,0.8724,0.8727,0.8733,0.8725,0.8714,0.8722,0.8693,0.8726,0.8726,0.8726,0.8726,0.8726,0.8215,0.8237,0.8277,0.8314,0.8343,0.8375,0.84,0.843,0.8464,0.851,0.8527,0.8569,0.861,0.8671,0.8697,0.8731,0.8733,0.8741,0.8743,0.8745,0.8744,0.8708,0.8739,0.8739,0.8739,0.8739,0.8739,0,0.8229,0.8256,0.829,0.8337,0.8367,0.8381,0.842,0.8444,0.8481,0.8517,0.8551,0.8599,0.8639,0.8678,0.8722,0.8742,0.8751,0.8752,0.8751,0.8757,0.8739,0.873,0.8744,0.8744,0.8744,0.8744,0.8744,0.8744,0.8239,0.8278,0.8298,0.8353,0.838,0.8421,0.8443,0.8473,0.8502,0.8555,0.8589,0.8614,0.8653,0.8699,0.8738,0.8749,0.8764,0.8764,0.8776,0.8759,0.8758,0.8757,0.8749,0.8766,0.8766,0.8792,0.8792,0.8792]},{"header":{"parameterUnit":"m.s-1","parameterCategory":1,"la1":30.2991,"la2":30.254,"lo1":-89.0895,"lo2":-89.0444,"dy":0.0017,"dx":0.0017,"nx":28,"ny":28,"refTime":"2024-03-23T09:00:00:Z","depth":0,"parameterNumber":3,"parameterNumberName":"V-component_of_WINDS"},"data":[0,0,0,0,0,0,0,0,0,0,0,0,0,0,0,0,0,0,0,0,0,0,0,0,0,0,0,0,0,0,0,0,0,0,0,0,0,0,0,0,0,0,0,0,0,0,0,0,0,0,0,0,0,0,0,0,0,0,-6.0533,-6.0533,0,-6.0513,-6.0512,-6.0512,-6.0511,-6.0512,-6.0512,-6.0512,-6.0486,-6.0485,-6.0484,0,0,0,0,0,0,0,0,0,0,0,0,0,-6.0569,-6.0568,-6.0533,-6.0533,-6.0533,-6.0513,-6.0512,-6.0512,-6.0511,-6.0512,-6.0512,-6.0512,-6.0486,-6.0485,-6.0484,0,0,0,0,0,0,0,0,0,0,0,0,0,-6.0551,-6.0568,-6.0533,-6.053,-6.053,-6.0513,-6.0512,-6.0512,-6.0511,-6.0512,-6.0512,-6.0513,-6.0487,-6.0485,-6.0484,-6.0467,0,0,-6.048,-6.0479,0,0,0,0,0,0,0,0,-6.0552,-6.055,-6.0531,-6.053,-6.053,-6.0515,-6.0515,-6.0497,-6.0511,-6.0518,-6.0512,-6.0513,-6.0495,-6.0493,-6.0488,-6.0466,-6.0465,-6.048,-6.0479,-6.0478,-6.0478,0,0,0,0,0,0,0,-6.0553,-6.055,-6.0525,-6.053,-6.053,-6.0529,-6.0527,-6.0512,-6.0504,-6.0518,-6.0517,-6.0515,-6.0495,-6.049,-6.0488,-6.0465,-6.048,-6.0478,-6.0477,-6.0477,-6.043,-6.0429,0,0,0,0,0,0,-6.0556,-6.0552,-6.0526,-6.0524,-6.0542,-6.0528,-6.0525,-6.0519,-6.0505,-6.0503,-6.0515,-6.0515,-6.0492,-6.0489,-6.0487,-6.0467,-6.0478,-6.0477,-6.0476,-6.043,-6.043,-6.0429,0,0,0,0,0,0,-6.0556,-6.0553,-6.0526,-6.0538,-6.0534,-6.0527,-6.052,-6.0519,-6.0513,-6.0503,-6.0501,-6.0511,-6.0492,-6.0489,-6.0473,-6.0466,-6.0476,-6.0475,-6.0431,-6.043,-6.0429,-6.0427,0,0,0,0,0,0,-6.0557,-6.0554,-6.0548,-6.0538,-6.0534,-6.0514,-6.0519,-6.0518,-6.0512,-6.0512,-6.0499,-6.0497,-6.0492,-6.0475,-6.0472,-6.0464,-6.0474,-6.0431,-6.043,-6.043,-6.0428,-6.0426,-6.0425,0,0,0,0,0,-6.0559,-6.0546,-6.0547,-6.0544,-6.0527,-6.0513,-6.0511,-6.0507,-6.0511,-6.0505,-6.0498,-6.0497,-6.0468,-6.0473,-6.0469,-6.0462,-6.0431,-6.043,-6.043,-6.0428,-6.0427,-6.0425,0,0,0,0,0,0,-6.0553,-6.0545,-6.0546,-6.053,-6.0523,-6.0513,-6.0505,-6.0505,-6.0495,-6.0496,-6.049,-6.0487,-6.0472,-6.0465,-6.0472,-6.0446,-6.045,-6.0448,-6.045,-6.0449,-6.0448,-6.0449,-6.0473,0,0,0,0,0,-6.0551,-6.0542,-6.0535,-6.0522,-6.0518,-6.0513,-6.0507,-6.0505,-6.0496,-6.0492,-6.0484,-6.0475,-6.0464,-6.0456,-6.0445,-6.0427,-6.0425,-6.042,-6.0419,-6.0418,-6.0416,-6.0408,-6.0406,-6.0426,-6.0426,-6.0426,0,0,-6.0544,-6.0539,-6.0533,-6.052,-6.0514,-6.0505,-6.051,-6.0499,-6.0491,-6.049,-6.0475,-6.047,-6.0458,-6.0442,-6.0435,-6.0436,-6.0411,-6.0417,-6.0417,-6.0415,-6.0407,-6.0405,-6.0403,-6.0425,-6.0426,-6.0426,0,0,-6.0527,-6.0523,-6.0512,-6.0507,-6.0498,-6.0495,-6.0493,-6.0484,-6.0481,-6.0467,-6.0466,-6.0457,-6.0437,-6.043,-6.0423,-6.0407,-6.0406,-6.0404,-6.0397,-6.0389,-6.0387,-6.0386,-6.038,-6.0378,-6.0402,-6.0402,-6.0402,0,-6.0519,-6.0506,-6.0506,-6.0496,-6.049,-6.0492,-6.048,-6.0475,-6.0463,-6.0458,-6.0461,-6.0439,-6.0431,-6.0414,-6.041,-6.0405,-6.0402,-6.0404,-6.0388,-6.0386,-6.0385,-6.038,-6.0378,-6.0402,-6.0402,-6.0402,-6.0402,0,-6.0497,-6.0488,-6.0481,-6.0472,-6.0466,-6.0455,-6.0452,-6.0446,-6.0445,-6.0442,-6.0428,-6.0419,-6.0407,-6.0403,-6.0401,-6.0386,-6.0388,-6.0389,-6.0393,-6.0383,-6.0378,-6.0376,-6.0402,-6.0402,-6.0402,-6.0402,0,0,-6.0473,-6.0467,-6.0464,-6.0461,-6.0454,-6.0446,-6.0436,-6.0426,-6.0421,-6.0414,-6.0404,-6.039,-6.0392,-6.0385,-6.0383,-6.0375,-6.0364,-6.0378,-6.0378,-6.0376,-6.0347,-6.0346,-6.0343,-6.0364,-6.0364,-6.0363,-6.0348,0,-6.0456,-6.0439,-6.044,-6.0424,-6.0416,-6.0419,-6.041,-6.0404,-6.0401,-6.0393,-6.0389,-6.0379,-6.0383,-6.0379,-6.0372,-6.0367,-6.0358,-6.0368,-6.0355,-6.0354,-6.0356,-6.034,-6.0338,-6.0324,-6.0346,-6.0346,-6.0345,0,-6.0432,-6.0427,-6.0411,-6.0407,-6.0403,-6.0395,-6.0388,-6.038,-6.0374,-6.0373,-6.0367,-6.0366,-6.0356,-6.0362,-6.0346,-6.0353,-6.0348,-6.0345,-6.0345,-6.0342,-6.0348,-6.0337,-6.0319,-6.0317,-6.0342,-6.0342,-6.0343,0,-6.0416,-6.0405,-6.0394,-6.0391,-6.0386,-6.0381,-6.0378,-6.0373,-6.0368,-6.0361,-6.0358,-6.0349,-6.0344,-6.0337,-6.0334,-6.0339,-6.0319,-6.0325,-6.0317,-6.0317,-6.0311,-6.0311,-6.0292,-6.031,-6.031,-6.031,-6.031,0,-6.0395,-6.0385,-6.0387,-6.038,-6.037,-6.0371,-6.036,-6.0357,-6.0353,-6.0346,-6.0347,-6.034,-6.0337,-6.0329,-6.0327,-6.0316,-6.0313,-6.0311,-6.031,-6.031,-6.0311,-6.0306,-6.0306,-6.0309,-6.0309,-6.0309,-6.0309,0,-6.0375,-6.0376,-6.0364,-6.0362,-6.0361,-6.0353,-6.0351,-6.0344,-6.0343,-6.0334,-6.0332,-6.0329,-6.032,-6.0318,-6.0306,-6.0305,-6.0291,-6.0291,-6.0293,-6.0293,-6.0286,-6.0286,-6.0261,-6.0258,-6.0279,-6.0278,-6.0278,0,-6.0361,-6.0354,-6.0352,-6.0348,-6.0346,-6.0339,-6.0335,-6.0337,-6.0332,-6.0326,-6.032,-6.0313,-6.0306,-6.0292,-6.0288,-6.028,-6.028,-6.0272,-6.0278,-6.0279,-6.0279,-6.0279,-6.0279,-6.027,-6.027,-6.0269,-6.0269,0,-6.0336,-6.0338,-6.0332,-6.0328,-6.0324,-6.032,-6.0316,-6.0313,-6.0314,-6.0308,-6.0301,-6.0296,-6.0287,-6.0278,-6.0271,-6.0267,-6.0268,-6.0268,-6.0266,-6.0265,-6.0266,-6.0265,-6.0289,-6.0268,-6.0268,-6.0268,-6.0268,-6.0268,-6.0317,-6.0312,-6.0311,-6.0305,-6.0304,-6.0301,-6.0295,-6.0295,-6.0289,-6.0283,-6.0284,-6.0276,-6.0271,-6.0262,-6.0258,-6.0251,-6.0253,-6.025,-6.0249,-6.0248,-6.0247,-6.0269,-6.025,-6.025,-6.025,-6.025,-6.025,0,-6.0292,-6.0293,-6.0288,-6.0284,-6.0281,-6.0285,-6.0282,-6.0278,-6.0271,-6.0268,-6.0263,-6.0255,-6.0248,-6.0246,-6.0239,-6.0234,-6.0234,-6.0232,-6.0231,-6.0231,-6.0246,-6.0248,-6.0232,-6.0232,-6.0232,-6.0232,-6.0232,-6.0232,-6.0279,-6.027,-6.0272,-6.0263,-6.0263,-6.0256,-6.0254,-6.0252,-6.025,-6.0242,-6.0237,-6.0236,-6.0234,-6.0227,-6.0221,-6.022,-6.0217,-6.0215,-6.0214,-6.0228,-6.0229,-6.0231,-6.0234,-6.0214,-6.0214,-6.02,-6.02,-6.02]}]]